Preview of NWS' New Version of Forecast
This preview is not operational and should not be used for support decisions.

Regional Weather Roundup (RWR)

Issued by Philadelphia/Mt Holly (PHI)

                            
000
ASUS41 KPHI 171612
RWRPHI

REGIONAL WEATHER ROUNDUP
NATIONAL WEATHER SERVICE MOUNT HOLLY NJ
1100 AM EST THU JAN 17 2019

NOTE:  "FAIR" INDICATES FEW OR NO CLOUDS BELOW 12,000 FEET WITH NO
SIGNIFICANT WEATHER AND/OR OBSTRUCTIONS TO VISIBILITY.

 * = STATION DOES NOT REPORT PRECIPITATION (E.G. RAIN, SNOW, ETC.) 
        OR FOG.

NJZ015>026-171700-
SOUTHERN NEW JERSEY
  
CITY           SKY/WX    TMP DP  RH WIND       PRES   REMARKS
POMONA         FAIR      33   8  35 NE8       30.41S WCI  26          
WILDWOOD*      FAIR      34  18  52 E8        30.42R WCI  27          
MILLVILLE      FAIR      32  16  51 N8        30.41R WCI  25          
WRIGHTSTOWN    FAIR      31   6  34 N6        30.39R WCI  25          
MOUNT HOLLY    FAIR      31   5  33 VRB5      30.42S WCI  26          
TRENTON        FAIR      30   6  36 NE5       30.41S WCI  25          

$$
NJZ001>014-171700-
NORTHERN NEW JERSEY
  
CITY           SKY/WX    TMP DP  RH WIND       PRES   REMARKS
SUSSEX         FAIR      26  10  50 E6        30.39F WCI  19          
ANDOVER*         N/A     26   6  42 VRB3      30.40R                  
MORRISTOWN     PTSUNNY   27  12  54 NE3       30.43S                  
NEWARK         PTSUNNY   29   9  43 NE8       30.43S WCI  21          
TETERBORO      FAIR      29   9  43 VRB5      30.43S WCI  24          
CALDWELL       FAIR      27   9  46 CALM      30.43S                  
SOMERVILLE     FAIR      29   4  34 VRB5      30.41S WCI  24          
ALLAIRE*       FAIR      29  14  53 CALM      30.42S                  
TOMS RIVER*    FAIR      32   9  38 E5        30.42S WCI  27          

$$
PAZ043-044-047-054-055-060>062-066>071-171700-
EASTERN PENNSYLVANIA
  
CITY           SKY/WX    TMP DP  RH WIND       PRES   REMARKS
PHILADELPHIA   PTSUNNY   31   8  38 NE7       30.42F WCI  24          
NORTH PHILA    FAIR      32   4  30 E5        30.43S WCI  27          
BLUE BELL*     FAIR      28   7  40 E3        30.42S                  
DOYLESTOWN     FAIR      29   4  34 NE5       30.39S WCI  24          
QUAKERTOWN*    SUNNY     27   7  43 VRB6      30.39  WCI  20          
PERKASIE*      FAIR      27   5  39 NE5       30.40R WCI  21          
POTTSTOWN      FAIR      27   8  44 N5        30.41S WCI  22          
LANCASTER      FAIR      29  16  58 E7        30.39S WCI  22          
COATESVILLE    FAIR      27  14  59 NE5       30.38F WCI  21          
READING        FAIR      28  10  46 CALM      30.39S                  
ALLENTOWN      FAIR      28   6  39 VRB3      30.41R                  
MOUNT POCONO   FAIR      22   3  44 E6        30.28S WCI  14          
HAZLETON       FAIR      30   5  34 CALM      30.33S                  
LEHIGHTON      FAIR      28   9  43 CALM      30.40S                  
WILKES BARRE   FAIR      22   5  48 N3        30.36S                  

$$
DEZALL-MDZ008-012-015-019-020-171700-
DELAWARE AND EASTERN MARYLAND
  
CITY           SKY/WX    TMP DP  RH WIND       PRES   REMARKS
WILMINGTON     FAIR      32  17  54 E8        30.42R WCI  25          
GEORGETOWN     FAIR      38  23  55 NE8       30.41R WCI  32          
EASTON         SUNNY     34  21  60 E7        30.43R WCI  28          
ABERDEEN       CLOUDY    30  19  64 NE9       30.41R WCI  22          
PATUXENT       CLOUDY    37  29  72 E10       30.39  WCI  30          
OCEAN CITY     FAIR      39  27  62 NE8       30.40R WCI  33          
WALLOPS ISLAND FAIR      40  29  64 NE7       30.40R                  
SALISBURY      FAIR      37  27  67 NE10      30.39S WCI  30          

$$
PAZ001-021-NYZ056-072-MDZ011-DCZ001-171700-
OTHER NEARBY LOCATIONS
  
CITY           SKY/WX    TMP DP  RH WIND       PRES   REMARKS
HARRISBURG     CLOUDY    30  16  56 E8        30.38S WCI  22          
STATE COLLEGE  SUNNY     25  16  68 CALM      30.30F                  
WILLIAMSPORT   FAIR      26  10  50 E5        30.38S WCI  20          
BINGHAMTON     FAIR      14   7  73 CALM      30.29S                  
NEW YORK CITY  FAIR      28  10  46 MISG      30.44S                  
BALTIMORE      CLOUDY    33  23  66 E12       30.38S WCI  24          
WASHINGTON DC  CLOUDY    37  23  56 E7        30.39R WCI  32          

$$